Wheeler AAF, HI

9:50 PM HST on May 24, 2018 (GMT -1000)
Wheeler Army Air Field

Weather History for PHHI - May, 2013

Change the Weather History Date:

Sunday, May 12, 2013

  Actual Average Record
Temperature  
Mean Temperature 71 °F -  
Max Temperature 75 °F 76 °F 86 °F (2004)
Min Temperature 67 °F 63 °F 59 °F (2012)
Cooling Degree Days 6    
Growing Degree Days 21 (Base 50)    
Moisture  
Dew Point 65 °F    
Average Humidity 80    
Maximum Humidity 88    
Minimum Humidity 69    
Precipitation  
Precipitation 0.00 in - - ()
Sea Level Pressure  
Sea Level Pressure 30.07 in    
Wind  
Wind Speed 7 mph (NNW)    
Max Wind Speed 13 mph    
Max Gust Speed 18 mph    
Visibility 10 miles    
Events Rain    
Averages and records for this station are not official NWS values.
T = Trace of Precipitation, MM = Missing Value Source: NWS Daily Summary

Daily Weather History Graph

Daily Weather History Graph

Search for Another Location

Airport or City:

Astronomy

May. 12, 2013 Rise Set
Actual Time 5:54 AM HST 7:02 PM HST
Civil Twilight 5:31 AM HST 7:26 PM HST
Nautical Twilight 5:02 AM HST 7:54 PM HST
Astronomical Twilight 4:33 AM HST 8:23 PM HST
Moon 8:03 AM HST (5/12) 9:34 PM HST (5/12)
Length of Visible Light 13h 55m
Length of Day
13h 07m
Waxing Crescent, 8% of the Moon is Illuminated
May 12
Waxing Crescent
May 17
First Quarter
May 24
Full
May 31
Last Quarter
Jun 8
New

Hourly Weather History & Observations

Time (HST) Temp. Dew Point Humidity Pressure Visibility Wind Dir Wind Speed Gust Speed Precip Events Conditions
12:26 AM 68.0 °F 62.6 °F 83% 30.09 in 10.0 mi NW 6.9 mph - N/A   Mostly Cloudy
12:40 AM 68.0 °F 62.6 °F 83% 30.08 in 10.0 mi NW 5.8 mph - N/A   Mostly Cloudy
12:55 AM 67.5 °F 62.6 °F 84% 30.08 in 10.0 mi NW 8.1 mph - N/A   Mostly Cloudy
1:01 AM 68.0 °F 62.6 °F 83% 30.08 in 10.0 mi NW 5.8 mph - N/A   Mostly Cloudy
1:26 AM 68.0 °F 62.6 °F 83% 30.07 in 10.0 mi WNW 6.9 mph - N/A   Mostly Cloudy
1:55 AM 67.6 °F 62.4 °F 83% 30.06 in 10.0 mi NW 5.8 mph - N/A   Scattered Clouds
2:01 AM 68.0 °F 62.6 °F 83% 30.06 in 10.0 mi NW 5.8 mph - N/A   Mostly Cloudy
2:17 AM 68.0 °F 62.6 °F 83% 30.06 in 10.0 mi NW 5.8 mph - N/A   Mostly Cloudy
2:43 AM 68.0 °F 62.6 °F 83% 30.06 in 10.0 mi NW 4.6 mph - N/A   Overcast
2:55 AM 68.0 °F 62.8 °F 83% 30.05 in 10.0 mi NW 6.9 mph - N/A   Overcast
2:58 AM 68.0 °F 62.6 °F 83% 30.05 in 10.0 mi NW 6.9 mph - N/A   Overcast
3:55 AM 68.2 °F 63.3 °F 84% 30.04 in 10.0 mi NW 8.1 mph - N/A   Overcast
4:55 AM 67.6 °F 63.1 °F 85% 30.04 in 10.0 mi NW 6.9 mph - N/A   Mostly Cloudy
5:24 AM 68.0 °F 62.6 °F 83% 30.05 in 10.0 mi WNW 5.8 mph - N/A   Overcast
5:31 AM 68.0 °F 62.6 °F 83% 30.05 in 10.0 mi NW 6.9 mph - N/A   Overcast
5:38 AM 68.0 °F 62.6 °F 83% 30.05 in 10.0 mi NW 6.9 mph - N/A   Overcast
5:55 AM 68.0 °F 63.5 °F 85% 30.06 in 10.0 mi NW 8.1 mph - N/A   Overcast
6:34 AM 68.0 °F 64.4 °F 88% 30.07 in 10.0 mi NNW 8.1 mph - N/A   Mostly Cloudy
6:55 AM 68.5 °F 64.0 °F 85% 30.08 in 10.0 mi NNW 8.1 mph - N/A   Mostly Cloudy
6:58 AM 68.0 °F 64.4 °F 88% 30.08 in 10.0 mi NNW 8.1 mph - N/A   Overcast
7:02 AM 68.0 °F 64.4 °F 88% 30.08 in 10.0 mi NNW 8.1 mph - N/A   Overcast
7:10 AM 68.0 °F 64.4 °F 88% 30.09 in 10.0 mi NNW 8.1 mph - N/A   Overcast
7:11 AM 68.0 °F 64.4 °F 88% 30.09 in 10.0 mi NNW 9.2 mph - N/A   Light Drizzle
7:13 AM 68.0 °F 64.4 °F 88% 30.09 in 10.0 mi Variable 6.9 mph - N/A   Light Drizzle
7:20 AM 69.8 °F 64.4 °F 83% 30.09 in 10.0 mi NNW 9.2 mph - N/A   Mostly Cloudy
7:32 AM 69.8 °F 64.4 °F 83% 30.09 in 10.0 mi NW 10.4 mph - N/A   Mostly Cloudy
7:38 AM 69.8 °F 64.4 °F 83% 30.09 in 10.0 mi NW 8.1 mph - N/A   Mostly Cloudy
7:50 AM 69.8 °F 64.4 °F 83% 30.09 in 10.0 mi NW 9.2 mph - N/A   Overcast
7:51 AM 69.8 °F 64.4 °F 83% 30.09 in 10.0 mi NW 9.2 mph - N/A   Overcast
7:54 AM 69.8 °F 66.2 °F 88% 30.09 in 10.0 mi NW 8.1 mph - N/A   Overcast
7:55 AM 69.6 °F 65.3 °F 86% 30.10 in 10.0 mi NNW 8.1 mph - 0.00 in   Overcast
8:17 AM 69.8 °F 66.2 °F 88% 30.10 in 10.0 mi NW 10.4 mph - N/A   Overcast
8:33 AM 71.6 °F 66.2 °F 83% 30.10 in 10.0 mi NNW 8.1 mph - N/A   Overcast
8:43 AM 71.6 °F 66.2 °F 83% 30.10 in 10.0 mi North 8.1 mph - N/A   Overcast
8:46 AM 71.6 °F 66.2 °F 83% 30.10 in 10.0 mi NNW 5.8 mph - N/A   Overcast
8:53 AM 71.6 °F 66.2 °F 83% 30.10 in 10.0 mi NW 8.1 mph - N/A   Overcast
8:55 AM 72.1 °F 66.2 °F 82% 30.10 in 10.0 mi NW 11.5 mph - N/A   Mostly Cloudy
9:01 AM 71.6 °F 66.2 °F 83% 30.10 in 10.0 mi WNW 10.4 mph - N/A   Mostly Cloudy
9:04 AM 71.6 °F 66.2 °F 83% 30.10 in 10.0 mi NW 8.1 mph - N/A   Mostly Cloudy
9:05 AM 71.6 °F 66.2 °F 83% 30.10 in 10.0 mi NW 9.2 mph - N/A   Mostly Cloudy
9:29 AM 71.6 °F 66.2 °F 83% 30.11 in 9.0 mi North 6.9 mph - N/A Rain Rain
9:55 AM 71.8 °F 66.6 °F 84% 30.11 in 10.0 mi North 6.9 mph - 0.00 in   Light Drizzle
9:58 AM 71.6 °F 66.2 °F 83% 30.10 in 10.0 mi North 8.1 mph - N/A   Mostly Cloudy
10:22 AM 73.4 °F 66.2 °F 78% 30.10 in 10.0 mi NW 6.9 mph 18.4 mph N/A   Overcast
10:55 AM 73.9 °F 65.5 °F 75% 30.09 in 10.0 mi NNE 11.5 mph - 0.00 in   Overcast
11:03 AM 75.2 °F 66.2 °F 73% 30.09 in 10.0 mi ENE 12.7 mph - N/A   Light Drizzle
11:06 AM 75.2 °F 66.2 °F 73% 30.09 in 10.0 mi ENE 12.7 mph - N/A   Mostly Cloudy
11:24 AM 75.2 °F 66.2 °F 73% 30.09 in 10.0 mi ENE 6.9 mph - N/A   Light Drizzle
11:33 AM 75.2 °F 64.4 °F 69% 30.09 in 10.0 mi NE 11.5 mph 18.4 mph N/A   Mostly Cloudy
11:55 AM 75.2 °F 65.7 °F 72% 30.09 in 10.0 mi NNE 8.1 mph - 0.00 in   Mostly Cloudy
12:55 PM 75.0 °F 64.6 °F 70% 30.07 in 10.0 mi NE 9.2 mph - N/A   Overcast
1:55 PM 75.2 °F 64.2 °F 69% 30.06 in 10.0 mi NE 9.2 mph - N/A   Mostly Cloudy
2:55 PM 75.9 °F 65.1 °F 69% 30.04 in 10.0 mi ENE 11.5 mph 16.1 mph N/A   Overcast
3:55 PM 75.2 °F 64.9 °F 70% 30.03 in 10.0 mi ENE 9.2 mph - N/A   Mostly Cloudy
4:55 PM 74.8 °F 65.1 °F 72% 30.02 in 10.0 mi ENE 9.2 mph - N/A   Overcast
5:38 PM 73.4 °F 64.4 °F 73% 30.02 in 10.0 mi Variable 5.8 mph - N/A   Overcast
5:55 PM 73.0 °F 64.4 °F 74% 30.03 in 10.0 mi Variable 5.8 mph - N/A   Mostly Cloudy
6:11 PM 73.4 °F 64.4 °F 73% 30.03 in 10.0 mi East 6.9 mph - N/A   Overcast
6:16 PM 73.4 °F 64.4 °F 73% 30.03 in 10.0 mi Variable 5.8 mph - N/A   Mostly Cloudy
6:34 PM 73.4 °F 64.4 °F 73% 30.03 in 10.0 mi NE 8.1 mph - N/A   Overcast
6:35 PM 73.4 °F 64.4 °F 73% 30.03 in 10.0 mi NE 6.9 mph - N/A   Overcast
6:55 PM 72.1 °F 64.0 °F 76% 30.03 in 10.0 mi NE 5.8 mph - N/A   Overcast
7:13 PM 71.6 °F 62.6 °F 73% 30.04 in 10.0 mi ENE 3.5 mph - N/A   Mostly Cloudy
7:39 PM 71.6 °F 64.4 °F 78% 30.04 in 10.0 mi Calm Calm - N/A   Mostly Cloudy
7:55 PM 71.2 °F 64.4 °F 79% 30.05 in 10.0 mi Calm Calm - N/A   Overcast
8:55 PM 71.8 °F 65.1 °F 79% 30.05 in 10.0 mi East 6.9 mph - N/A   Overcast
9:00 PM 71.6 °F 64.4 °F 78% 30.06 in 10.0 mi East 4.6 mph - N/A   Mostly Cloudy
9:07 PM 71.6 °F 64.4 °F 78% 30.06 in 10.0 mi East 3.5 mph - N/A   Mostly Cloudy
9:55 PM 71.6 °F 65.1 °F 80% 30.06 in 10.0 mi Calm Calm - N/A   Mostly Cloudy
10:55 PM 71.8 °F 65.5 °F 80% 30.06 in 10.0 mi Variable 3.5 mph - N/A   Overcast
11:18 PM 71.6 °F 64.4 °F 78% 30.06 in 10.0 mi Variable 5.8 mph - N/A   Mostly Cloudy
11:22 PM 71.6 °F 64.4 °F 78% 30.06 in 10.0 mi East 4.6 mph - N/A   Mostly Cloudy
11:55 PM 71.6 °F 65.7 °F 81% 30.05 in 10.0 mi SSE 3.5 mph - N/A   Overcast